FENGYUN 1C DEB

基本信息
目录编号:
31012
目录名称:
FENGYUN 1C DEB
国际标识:
1999-025BDE
轨道中心:
EARTH
物体状态:
在轨
发射日期:
1999-05-10 UTC
轨道信息
数据来源: 国际轨道数据
星历时间: 2026-09-20T07:29:49+0800
半长轴: 7176.284km
偏心率: 0.0082378
轨道倾角: 98.889°
近地点辐角: 154.536°
升交点赤经: 171.475°
平近点角: 266.881°
近地点: 739.03km
远地点: 857.264km
周期: 100.834分钟
每日圈数: 14.280828
详细信息
发射场:
TSC
轨道高度:
LEO
数据来源:
AOE Integration Group
参考系:
TEME
时间系统:
UTC
历元类型:
SGP4
2D轨道图
3D轨道图
轨道高度分析图
轨道倾角分析图
轨道综合分析图
查看轨道综合分析图